TimeEDT,TemperatureF,Dew PointF,Humidity,Sea Level PressureIn,VisibilityMPH,Wind Direction,Wind SpeedMPH,Gust SpeedMPH,PrecipitationIn,Events,Conditions,WindDirDegrees,DateUTC
12:53 AM,57.0,48.0,72,30.19,10.0,West,3.5,-,N/A,,Clear,280,2011-10-05 04:53:00
1:53 AM,53.1,46.9,80,30.19,10.0,Calm,Calm,-,N/A,,Clear,0,2011-10-05 05:53:00
2:53 AM,55.9,46.9,72,30.19,10.0,SW,4.6,-,N/A,,Clear,220,2011-10-05 06:53:00
3:53 AM,55.0,46.0,72,30.19,10.0,WSW,4.6,-,N/A,,Clear,250,2011-10-05 07:53:00
4:53 AM,55.0,46.0,72,30.21,10.0,WSW,6.9,-,N/A,,Clear,250,2011-10-05 08:53:00
5:53 AM,53.1,46.0,77,30.22,10.0,West,3.5,-,N/A,,Clear,260,2011-10-05 09:53:00
6:53 AM,51.1,46.0,83,30.23,10.0,WNW,4.6,-,N/A,,Clear,290,2011-10-05 10:53:00
7:53 AM,52.0,46.0,80,30.25,10.0,SSE,8.1,-,N/A,,Clear,160,2011-10-05 11:53:00
8:53 AM,57.0,48.0,72,30.25,10.0,Variable,3.5,-,N/A,,Clear,0,2011-10-05 12:53:00
9:53 AM,61.0,48.9,64,30.25,10.0,Calm,Calm,-,N/A,,Clear,0,2011-10-05 13:53:00
10:53 AM,68.0,48.9,50,30.25,10.0,Calm,Calm,-,N/A,,Clear,0,2011-10-05 14:53:00
11:53 AM,73.4,44.6,36,30.25,10.0,Variable,5.8,-,N/A,,Clear,0,2011-10-05 15:53:00
12:53 PM,73.9,43.0,33,30.22,10.0,Variable,5.8,-,N/A,,Clear,0,2011-10-05 16:53:00
1:45 PM,73.4,46.4,38,30.22,10.0,North,11.5,-,N/A,,Clear,10,2011-10-05 17:45:00
1:53 PM,75.0,46.0,36,30.20,10.0,North,11.5,-,N/A,,Clear,10,2011-10-05 17:53:00
2:53 PM,75.9,46.0,35,30.18,10.0,North,11.5,-,N/A,,Clear,10,2011-10-05 18:53:00
3:53 PM,77.0,46.9,34,30.17,10.0,NNW,12.7,-,N/A,,Clear,330,2011-10-05 19:53:00
4:53 PM,77.0,48.0,36,30.17,10.0,North,13.8,-,N/A,,Clear,10,2011-10-05 20:53:00
5:53 PM,71.1,52.0,51,30.17,10.0,North,11.5,-,N/A,,Clear,10,2011-10-05 21:53:00
6:53 PM,62.6,53.6,72,30.18,10.0,Calm,Calm,-,N/A,,Clear,0,2011-10-05 22:53:00
7:53 PM,60.1,51.1,72,30.20,10.0,North,6.9,-,N/A,,Clear,10,2011-10-05 23:53:00
8:53 PM,59.0,51.1,75,30.21,10.0,Calm,Calm,-,N/A,,Clear,0,2011-10-06 00:53:00
9:53 PM,57.0,51.1,81,30.23,10.0,Calm,Calm,-,N/A,,Clear,0,2011-10-06 01:53:00
10:53 PM,55.0,51.1,86,30.25,10.0,Calm,Calm,-,N/A,,Clear,0,2011-10-06 02:53:00
11:53 PM,55.0,51.1,86,30.27,10.0,Calm,Calm,-,N/A,,Clear,0,2011-10-06 03:53:00